186  
ASUS44 KFWD 220415  
RWRTX  
NORTH TEXAS HOURLY WEATHER ROUNDUP  
NATIONAL WEATHER SERVICE FORT WORTH TX  
1100 PM CDT THU SEP 21 2017  
 
NOTE: "FAIR" INDICATES FEW OR NO CLOUDS BELOW 12,000 FEET WITH NO  
SIGNIFICANT WEATHER AND/OR S TO VISIBILITY
.  
 
TXZ118-119-220500-  
DALLAS/FORT WORTH METROPLEX  
 
CITY SKY/WX TMP DP RH WIND PRES REMARKS
 
DFW AIRPORT CLEAR 82 70 66 S13 29.91R  
DALLAS LOVE PTCLDY 81 70 69 S15G22 29.93R  
FTW MEACHAM CLEAR 83 70 64 SE13 29.91R  
DAL-EXECUTIVE CLEAR 80 71 74 SE12 29.93R  
FTW-ALLIANCE CLEAR 81 69 67 S8 29.91S  
FTW-NAS-JRB CLEAR 83 67 58 MISG 29.92R  
FTW-SPINKS CLEAR 80 68 66 SE8 29.94R  
ARLINGTON CLEAR 80 71 74 SE12 29.93R  
GRAND PRAIRIE CLEAR 80 68 65 SE8 29.94R  
ADDISON CLEAR 79 70 73 S10G17 29.95R  
MESQUITE CLEAR 77 71 80 SE10 29.95R  
LANCASTER CLEAR 77 70 78 SE9 29.95S  

 
 
TXZ091>094-102>105-117-120-121-131>134-220500-  
NORTH CENTRAL TEXAS  
 
CITY SKY/WX TMP DP RH WIND PRES REMARKS
 
SHRMAN/DENISON CLEAR 80 68 67 SE13 29.95R  
GAINESVILLE CLEAR 80 68 66 S12 29.94R  
BOWIE CLEAR 79 68 69 SE8 29.91R  
BRIDGEPORT CLEAR 82 67 61 S12G20 29.92S  
DECATUR CLEAR 81 69 66 SE12G18 29.92R  
DENTON CLEAR 80 69 69 S12 29.92R  
MCKINNEY CLEAR 79 72 79 S12 29.94R  
BONHAM CLEAR 77 68 74 SE12 29.96R  
GREENVILLE CLEAR 79 72 78 SE6 29.96S  
ROCKWALL CLEAR 78 71 80 S9 29.95R  
TERRELL CLEAR 78 71 79 SE8 29.96R  
WAXAHACHIE CLEAR 78 70 77 SE6 29.96R  
CLEBURNE CLEAR 79 73 83 S8 29.95R  
GRANBURY CLEAR 83 70 64 SE10 29.93R  

 
 
TXZ083>090-098>101-113>116-127>130-139>142-154-155-220500-  
WESTERN NORTH TEXAS  
 
CITY SKY/WX TMP DP RH WIND PRES REMARKS
 
WICHITA FALLS CLEAR 81 67 62 SE13 29.87R  
WF-KICKAPOO CLEAR 82 68 63 SE12 29.90R  
VERNON CLEAR 84 63 48 SE16 29.86R  
ABILENE CLEAR 82 64 54 SE15 29.91R  
ABILENE-DYESS PTCLDY 83 65 53 SE14 29.89R  
GRAHAM CLEAR 83 66 56 SE10G16 29.88R  
BRECKENRIDGE CLEAR 84 65 51 SE12G21 29.90R  
CISCO CLEAR 81 64 57 SE10 29.93R  
EASTLAND CLEAR 81 69 67 SE13G20 29.92R  
RANGER CLEAR 80 69 70 S14 29.93R  
MINERAL WELLS CLEAR 82 69 64 SE15 29.91R  
STEPHENVILLE CLEAR 79 68 70 S9 29.97R  
COMANCHE CLEAR 78 69 73 SE9 29.93S  
BROWNWOOD CLEAR 81 68 65 SE9G18 29.92S  
COLEMAN CLEAR 82 64 55 SE12 29.93R  

 
 
TXZ143>147-156>162-174-175-220500-  
CENTRAL TEXAS  
 
CITY SKY/WX TMP DP RH WIND PRES REMARKS
 
WACO CLEAR 79 71 76 S15 29.93S  
WACO-TSTC CLEAR 77 72 83 S5 29.94R  
WACO-MCGREGOR CLEAR 77 71 82 SE12 29.94R  
HILLSBORO CLEAR 79 71 75 SE12 29.94S  
CORSICANA CLEAR 77 72 84 SE10 29.96S  
MEXIA CLEAR 75 71 87 SE8 29.95S  
CAMERON CLEAR 75 72 88 SE7 29.95R  
TEMPLE CLEAR 76 72 87 SE13 29.95S  
KILLEEN CLEAR 79 70 73 SE9 29.94R  
FORT HOOD CLEAR 75 70 84 SE12 29.91R  
GATESVILLE CLEAR 77 72 83 VRB5 29.96R  
HAMILTON CLEAR 78 68 72 S13 29.95S  
LAMPASAS CLEAR 77 72 83 SE3 29.94R  

 
 
TXZ095>097-106>112-122>126-135>138-148>153-164>167-220500-  
EAST TEXAS  
 
CITY SKY/WX TMP DP RH WIND PRES REMARKS
 
PARIS CLEAR 76 70 82 SE8 29.97S  
SULPHUR SPRNGS CLEAR 77 70 78 S8 29.99R  
MOUNT PLEASANT CLEAR 72 70 92 SE3 29.99S  
GILMER CLEAR 73 70 91 CALM 29.98S  
MINEOLA CLOUDY 75 72 88 SE7 29.96F  
TYLER PTCLDY 75 73 93 S9 29.97S  
LONGVIEW CLOUDY 74 71 91 SE5 29.97R  
MARSHALL PTCLDY 71 67 87 CALM 30.00S  
ATHENS CLEAR 73 72 94 SE3 29.95S  
PALESTINE PTCLDY 76 74 94 SE5 29.98S  
JACKSONVILLE PTCLDY 74 73 97 S5 30.01S  
HENDERSON PTCLDY 71 70 96 CALM 29.99S  
CENTER CLOUDY 74 73 95 CALM 29.99F  
NACOGDOCHES MOCLDY 73 72 96 SE5 29.99S  
LUFKIN PTCLDY 73 73 100 SE5 29.97S  

 
 
SUPPLEMENTAL OBSERVATIONS (NWS FORT WORTH AREA)  
 
CITY SKY/WX TMP DP RH WIND PRES REMARKS
 
DENISON DAM N/A 81 66 61 S10 N/A  
CADDO GRASSLND N/A 79 68 69 S6 N/A  
PAT MAYSE LAKE N/A 79 72 78 SE12 N/A  
LBJ GRASSLAND N/A 82 70 65 SE10G18 N/A  
POSSUM KINGDOM N/A 82 66 57 SE12 N/A  
GRANBURY N/A 82 70 65 SE12 N/A  
MCGREGOR N/A 77 70 78 S9 N/A  
TEMPLE N/A 75 70 83 SE5 N/A  

 
 
SUPPLEMENTAL OBSERVATIONS (NWS NORMAN AREA)  
 
CITY SKY/WX TMP DP RH WIND PRES REMARKS
 
ODELL N/A 82 68 62 SE17 29.87R  
CROWELL N/A 86 66 50 S22 29.87R  
KNOX CITY N/A 85 61 43 SE17 29.87S  
SEYMOUR N/A 83 63 50 SE15 29.87S  
MILLERS CREEK N/A 84 64 51 SE14 N/A  

 
 
SUPPLEMENTAL OBSERVATIONS (NWS SAN ANGELO AREA)  
 
CITY SKY/WX TMP DP RH WIND PRES REMARKS
 
WEINERT N/A 84 64 50 SE14 29.89R  
HASKELL N/A 84 60 45 SE8 29.89R  
THROCKMORTON N/A 83 66 55 SE9 29.90R  
STAMFORD N/A 83 64 52 SE12 29.90R  
CLYDE N/A 80 64 58 S10 29.95R  
HAMBY N/A 82 61 47 SE7 N/A  
IVIE RESERVOIR N/A 82 64 54 SE10 N/A  
COLORADO BEND N/A 77 68 73 SE8G17 N/A  

 
 
SUPPLEMENTAL OBSERVATIONS (NWS SHREVEPORT AREA)  
 
CITY SKY/WX TMP DP RH WIND PRES REMARKS
 
CLARKSVILLE N/A 75 66 73 S2 N/A  
TEXARKANA N/A 73 72 94 CALM N/A  
LINDEN N/A 73 68 83 E1 N/A  
CADDO LAKE N/A 70 68 94 CALM N/A  
GILMER N/A 72 68 88 S1 N/A  
HENDERSON N/A 72 70 94 S1 N/A  
LUFKIN N/A 73 72 94 MISG N/A  
N SABINE NF N/A 72 70 94 MISG N/A  
S SABINE NF N/A 72 70 94 CALM N/A  

 
 
SUPPLEMENTAL OBSERVATIONS ARE A COLLECTION OF AUTOMATED INSTRUMENTS  
THAT ARE MAINTAINED BY A VARIETY OF FEDERAL AND STATE AGENCIES.  
CERTAIN ELEMENTS...SUCH AS HUMIDITY VALUES AND SUSTAINED WIND  
SPEEDS...MAY BE APPROXIMATED.  
 
 
 
CLICK HERE TO GO TO PREVIOUS BULLETINS.

The Nexlab TX Page Main Text Page

The Nexlab TX Page Main Text Page